| time (UTC) | temp F | wind direction | speed MPH | gust MPH | rain 1hr in | rain 24hr in | rain mn in | humidity % | barometer mb |
| 20260510133824 | 47 | 272 | 2.0 | 9.0 | 0.00 | 0.00 | 0.00 | 59 | 1014.3 |
| 20260510133320 | 47 | 128 | 0.0 | 6.0 | 0.00 | 0.00 | 0.00 | 59 | 1014.3 |
| 20260510132816 | 48 | 332 | 3.0 | 9.0 | 0.00 | 0.00 | 0.00 | 57 | 1014.2 |
| 20260510132314 | 45 | 239 | 2.0 | 5.0 | 0.00 | 0.00 | 0.00 | 61 | 1014.2 |
| 20260510131811 | 45 | 295 | 3.0 | 7.0 | 0.00 | 0.00 | 0.00 | 59 | 1014.0 |
| 20260510131308 | 46 | 236 | 4.0 | 7.0 | 0.00 | 0.00 | 0.00 | 60 | 1014.1 |
| 20260510130805 | 46 | 351 | 2.0 | 5.0 | 0.00 | 0.00 | 0.00 | 60 | 1013.9 |
| 20260510130302 | 45 | 239 | 2.0 | 7.0 | 0.00 | 0.00 | 0.00 | 60 | 1014.0 |
| 20260510125758 | 45 | 255 | 2.0 | 4.0 | 0.00 | 0.00 | 0.00 | 61 | 1013.8 |
| 20260510125254 | 44 | 271 | 3.0 | 6.0 | 0.00 | 0.00 | 0.00 | 61 | 1013.8 |
| 20260510124751 | 44 | 255 | 2.0 | 6.0 | 0.00 | 0.00 | 0.00 | 63 | 1013.7 |
| 20260510124248 | 43 | 234 | 2.0 | 5.0 | 0.00 | 0.00 | 0.00 | 64 | 1013.8 |
| 20260510123744 | 42 | 306 | 1.0 | 5.0 | 0.00 | 0.00 | 0.00 | 65 | 1013.6 |
| 20260510123240 | 42 | 322 | 2.0 | 4.0 | 0.00 | 0.00 | 0.00 | 66 | 1013.8 |
| 20260510122736 | 42 | 320 | 1.0 | 2.0 | 0.00 | 0.00 | 0.00 | 68 | 1013.6 |
| 20260510122233 | 42 | 20 | 0.0 | 2.0 | 0.00 | 0.00 | 0.00 | 67 | 1013.6 |
| 20260510121729 | 42 | 7 | 1.0 | 2.0 | 0.00 | 0.00 | 0.00 | 65 | 1013.4 |
| 20260510121227 | 43 | 290 | 0.0 | 2.0 | 0.00 | 0.00 | 0.00 | 63 | 1013.3 |
| 20260510120724 | 43 | 2 | 1.0 | 3.0 | 0.00 | 0.00 | 0.00 | 63 | 1013.3 |
| 20260510120220 | 40 | 355 | 0.0 | 3.0 | 0.00 | 0.00 | 0.00 | 67 | 1013.1 |
| 20260510115716 | 39 | 237 | 0.0 | 4.0 | 0.00 | 0.00 | 0.00 | 68 | 1013.4 |
| 20260510115214 | 40 | 302 | 1.0 | 4.0 | 0.00 | 0.00 | 0.00 | 67 | 1013.3 |
| 20260510114709 | 39 | 256 | 0.0 | 5.0 | 0.00 | 0.00 | 0.00 | 68 | 1013.2 |
| 20260510114207 | 38 | 343 | 0.0 | 4.0 | 0.00 | 0.00 | 0.00 | 71 | 1013.1 |
| 20260510113701 | 37 | 6 | 0.0 | 2.0 | 0.00 | 0.00 | 0.00 | 72 | 1013.1 |
| 20260510113158 | 37 | 5 | 0.0 | 2.0 | 0.00 | 0.00 | 0.00 | 72 | 1013.1 |
| 20260510112654 | 37 | 9 | 1.0 | 3.0 | 0.00 | 0.00 | 0.00 | 72 | 1013.0 |
| 20260510112152 | 37 | 315 | 3.0 | 5.0 | 0.00 | 0.00 | 0.00 | 72 | 1013.0 |
| 20260510111642 | 36 | 340 | 1.0 | 5.0 | 0.00 | 0.00 | 0.00 | 73 | 1012.6 |
| 20260510111138 | 37 | 347 | 1.0 | 5.0 | 0.00 | 0.00 | 0.00 | 73 | 1013.1 |
| 20260510110633 | 36 | 328 | 0.0 | 3.0 | 0.00 | 0.00 | 0.00 | 74 | 1012.8 |
| 20260510110131 | 36 | 290 | 0.0 | 3.0 | 0.00 | 0.00 | 0.00 | 74 | 1013.0 |
| 20260510105626 | 36 | 346 | 0.0 | 3.0 | 0.00 | 0.00 | 0.00 | 73 | 1012.9 |
| 20260510105121 | 36 | 246 | 0.0 | 3.0 | 0.00 | 0.00 | 0.00 | 74 | 1012.9 |
| 20260510104618 | 36 | 261 | 2.0 | 3.0 | 0.00 | 0.00 | 0.00 | 74 | 1012.8 |
| 20260510104115 | 36 | 344 | 1.0 | 2.0 | 0.00 | 0.00 | 0.00 | 72 | 1012.6 |
| 20260510103612 | 37 | 267 | 1.0 | 5.0 | 0.00 | 0.00 | 0.00 | 71 | 1012.6 |
| 20260510103107 | 37 | 248 | 0.0 | 3.0 | 0.00 | 0.00 | 0.00 | 71 | 1012.4 |
| 20260510102603 | 37 | 263 | 0.0 | 4.0 | 0.00 | 0.00 | 0.00 | 69 | 1012.6 |
| 20260510102059 | 38 | 232 | 2.0 | 4.0 | 0.00 | 0.00 | 0.00 | 70 | 1012.3 |
| 20260510101557 | 38 | 265 | 2.0 | 3.0 | 0.00 | 0.00 | 0.00 | 69 | 1012.5 |
| 20260510101055 | 38 | 253 | 0.0 | 2.0 | 0.00 | 0.00 | 0.00 | 69 | 1012.1 |
| 20260510100551 | 38 | 149 | 1.0 | 1.0 | 0.00 | 0.00 | 0.00 | 69 | 1011.8 |
| 20260510100049 | 37 | 36 | 0.0 | 2.0 | 0.00 | 0.00 | 0.00 | 70 | 1011.9 |
| 20260510095544 | 37 | 191 | 0.0 | 1.0 | 0.00 | 0.00 | 0.00 | 70 | 1011.9 |
| 20260510095044 | 37 | 193 | 0.0 | 3.0 | 0.00 | 0.00 | 0.00 | 70 | 1011.9 |
| 20260510094544 | 37 | 32 | 0.0 | 1.0 | 0.00 | 0.00 | 0.00 | 72 | 1011.8 |
| 20260510094039 | 37 | 358 | 2.0 | 2.0 | 0.00 | 0.00 | 0.00 | 71 | 1011.8 |
| 20260510093535 | 37 | 22 | 0.0 | 3.0 | 0.00 | 0.00 | 0.00 | 70 | 1011.8 |
| 20260510093032 | 37 | 315 | 0.0 | 2.0 | 0.00 | 0.00 | 0.00 | 70 | 1012.0 |
| 20260510092530 | 38 | 317 | 1.0 | 2.0 | 0.00 | 0.00 | 0.00 | 69 | 1011.9 |
| 20260510092029 | 38 | 315 | 0.0 | 1.0 | 0.00 | 0.00 | 0.00 | 69 | 1012.0 |
| 20260510091526 | 38 | 224 | 0.0 | 2.0 | 0.00 | 0.00 | 0.00 | 69 | 1011.9 |
| 20260510091022 | 37 | 224 | 0.0 | 1.0 | 0.00 | 0.00 | 0.00 | 70 | 1011.9 |
| 20260510090519 | 37 | 32 | 0.0 | 2.0 | 0.00 | 0.00 | 0.00 | 69 | 1011.8 |
| 20260510090015 | 38 | 44 | 0.0 | 1.0 | 0.00 | 0.00 | 0.00 | 68 | 1012.0 |
| 20260510085510 | 38 | 224 | 0.0 | 1.0 | 0.00 | 0.00 | 0.00 | 69 | 1011.6 |
| 20260510085006 | 38 | 201 | 0.0 | 2.0 | 0.00 | 0.00 | 0.00 | 70 | 1011.8 |
| 20260510084503 | 38 | 292 | 0.0 | 2.0 | 0.00 | 0.00 | 0.00 | 68 | 1011.6 |
| 20260510084000 | 39 | 249 | 0.0 | 2.0 | 0.00 | 0.00 | 0.00 | 67 | 1011.5 |
| 20260510083456 | 38 | 193 | 0.0 | 2.0 | 0.00 | 0.00 | 0.00 | 68 | 1011.3 |
| 20260510082951 | 37 | 333 | 0.0 | 1.0 | 0.00 | 0.00 | 0.00 | 70 | 1011.2 |
| 20260510082450 | 37 | 319 | 0.0 | 2.0 | 0.00 | 0.00 | 0.00 | 70 | 1011.1 |
| 20260510081949 | 37 | 5 | 0.0 | 2.0 | 0.00 | 0.00 | 0.00 | 70 | 1011.2 |
| 20260510081445 | 36 | 21 | 0.0 | 2.0 | 0.00 | 0.00 | 0.00 | 72 | 1011.1 |
| 20260510080942 | 36 | 44 | 0.0 | 2.0 | 0.00 | 0.00 | 0.00 | 73 | 1010.9 |
| 20260510080439 | 36 | 30 | 1.0 | 2.0 | 0.00 | 0.00 | 0.00 | 73 | 1011.1 |
| 20260510075937 | 36 | 346 | 0.0 | 1.0 | 0.00 | 0.00 | 0.00 | 72 | 1011.0 |
| 20260510075435 | 37 | 333 | 0.0 | 2.0 | 0.00 | 0.00 | 0.00 | 72 | 1010.9 |
| 20260510074931 | 37 | 22 | 0.0 | 2.0 | 0.00 | 0.00 | 0.00 | 72 | 1011.1 |
| 20260510074429 | 36 | 328 | 0.0 | 2.0 | 0.00 | 0.00 | 0.00 | 72 | 1010.8 |
| 20260510073925 | 36 | 55 | 0.0 | 1.0 | 0.00 | 0.00 | 0.00 | 72 | 1010.9 |
| 20260510073420 | 37 | 5 | 0.0 | 1.0 | 0.00 | 0.00 | 0.00 | 72 | 1010.9 |
| 20260510072917 | 37 | 315 | 0.0 | 1.0 | 0.00 | 0.00 | 0.00 | 72 | 1011.0 |
| 20260510072414 | 37 | 339 | 0.0 | 2.0 | 0.00 | 0.00 | 0.00 | 71 | 1010.8 |
| 20260510071909 | 38 | 322 | 0.0 | 2.0 | 0.00 | 0.00 | 0.00 | 70 | 1010.7 |
| 20260510071406 | 38 | 328 | 1.0 | 2.0 | 0.00 | 0.00 | 0.00 | 69 | 1010.8 |
| 20260510070905 | 38 | 5 | 2.0 | 2.0 | 0.00 | 0.00 | 0.00 | 69 | 1010.8 |
| 20260510070401 | 38 | 314 | 1.0 | 2.0 | 0.00 | 0.00 | 0.00 | 68 | 1010.7 |
| 20260510065856 | 39 | 11 | 0.0 | 2.0 | 0.00 | 0.00 | 0.00 | 67 | 1010.6 |
| 20260510065353 | 39 | 318 | 0.0 | 2.0 | 0.00 | 0.00 | 0.00 | 66 | 1010.7 |
| 20260510064850 | 39 | 238 | 1.0 | 2.0 | 0.00 | 0.00 | 0.00 | 66 | 1010.9 |
| 20260510064348 | 40 | 320 | 0.0 | 2.0 | 0.00 | 0.00 | 0.00 | 65 | 1010.8 |
| 20260510063844 | 40 | 315 | 0.0 | 2.0 | 0.00 | 0.00 | 0.00 | 64 | 1010.6 |
| 20260510063340 | 39 | 241 | 0.0 | 1.0 | 0.00 | 0.00 | 0.00 | 65 | 1010.7 |
| 20260510062837 | 39 | 313 | 0.0 | 1.0 | 0.00 | 0.00 | 0.00 | 66 | 1010.9 |
| 20260510062333 | 40 | 329 | 0.0 | 3.0 | 0.00 | 0.00 | 0.00 | 64 | 1010.7 |
| 20260510061828 | 40 | 345 | 1.0 | 2.0 | 0.00 | 0.00 | 0.00 | 64 | 1010.6 |
| 20260510061325 | 40 | 2 | 1.0 | 2.0 | 0.00 | 0.00 | 0.00 | 63 | 1010.7 |
| 20260510060821 | 40 | 347 | 2.0 | 2.0 | 0.00 | 0.00 | 0.00 | 64 | 1010.6 |
| 20260510060319 | 40 | 341 | 1.0 | 3.0 | 0.00 | 0.00 | 0.00 | 64 | 1010.7 |
| 20260510055815 | 40 | 354 | 0.0 | 2.0 | 0.00 | 0.00 | 0.00 | 63 | 1010.7 |
| 20260510055314 | 41 | 337 | 0.0 | 2.0 | 0.00 | 0.00 | 0.00 | 63 | 1010.5 |
| 20260510054813 | 41 | 331 | 2.0 | 2.0 | 0.00 | 0.00 | 0.00 | 62 | 1010.3 |
| 20260510054309 | 42 | 356 | 2.0 | 3.0 | 0.00 | 0.00 | 0.00 | 61 | 1010.4 |
| 20260510053804 | 42 | 356 | 1.0 | 3.0 | 0.00 | 0.00 | 0.00 | 60 | 1010.3 |
| 20260510053259 | 43 | 339 | 1.0 | 3.0 | 0.00 | 0.00 | 0.00 | 58 | 1010.1 |
| 20260510052755 | 43 | 324 | 2.0 | 3.0 | 0.00 | 0.00 | 0.00 | 57 | 1010.0 |
| 20260510052246 | 43 | 16 | 1.0 | 5.0 | 0.00 | 0.00 | 0.00 | 57 | 1010.3 |
| 20260510051742 | 43 | 338 | 2.0 | 5.0 | 0.00 | 0.00 | 0.00 | 57 | 1010.1 |
| 20260510051239 | 42 | 358 | 1.0 | 3.0 | 0.00 | 0.00 | 0.00 | 59 | 1010.1 |
| 20260510050736 | 42 | 332 | 1.0 | 3.0 | 0.00 | 0.00 | 0.00 | 59 | 1010.1 |
| 20260510050233 | 42 | 4 | 0.0 | 2.0 | 0.00 | 0.00 | 0.00 | 59 | 1009.8 |
| 20260510045730 | 42 | 341 | 0.0 | 2.0 | 0.00 | 0.00 | 0.00 | 60 | 1009.6 |
| 20260510045226 | 42 | 338 | 0.0 | 2.0 | 0.00 | 0.00 | 0.00 | 61 | 1009.7 |
| 20260510044723 | 41 | 355 | 2.0 | 2.0 | 0.00 | 0.00 | 0.00 | 62 | 1009.6 |
| 20260510044221 | 42 | 355 | 0.0 | 2.0 | 0.00 | 0.00 | 0.00 | 62 | 1009.6 |
| 20260510043716 | 42 | 350 | 0.0 | 2.0 | 0.00 | 0.00 | 0.00 | 62 | 1009.6 |
| 20260510043213 | 42 | 356 | 1.0 | 2.0 | 0.00 | 0.00 | 0.00 | 61 | 1009.7 |
| 20260510042710 | 42 | 290 | 0.0 | 1.0 | 0.00 | 0.00 | 0.00 | 60 | 1009.4 |
| 20260510042206 | 42 | 31 | 0.0 | 2.0 | 0.00 | 0.00 | 0.00 | 62 | 1009.4 |
| 20260510041703 | 42 | 304 | 0.0 | 2.0 | 0.00 | 0.00 | 0.00 | 61 | 1009.5 |
| 20260510041201 | 42 | 318 | 0.0 | 2.0 | 0.00 | 0.00 | 0.00 | 62 | 1009.2 |
| 20260510040657 | 43 | 352 | 0.0 | 2.0 | 0.00 | 0.00 | 0.00 | 61 | 1009.2 |
| 20260510040154 | 43 | 326 | 0.0 | 1.0 | 0.00 | 0.00 | 0.00 | 61 | 1009.0 |
| 20260510035650 | 43 | 315 | 0.0 | 1.0 | 0.00 | 0.00 | 0.00 | 59 | 1009.2 |
| 20260510035145 | 43 | 312 | 0.0 | 2.0 | 0.00 | 0.00 | 0.00 | 59 | 1009.0 |
| 20260510034642 | 43 | 328 | 1.0 | 2.0 | 0.00 | 0.00 | 0.00 | 59 | 1009.3 |
| 20260510034139 | 42 | 13 | 0.0 | 2.0 | 0.00 | 0.00 | 0.00 | 60 | 1009.2 |
| 20260510033635 | 42 | 299 | 0.0 | 2.0 | 0.00 | 0.00 | 0.00 | 60 | 1009.0 |
| 20260510033133 | 42 | 323 | 0.0 | 2.0 | 0.00 | 0.00 | 0.00 | 60 | 1009.0 |
| 20260510032630 | 42 | 335 | 0.0 | 2.0 | 0.00 | 0.00 | 0.00 | 59 | 1009.1 |
| 20260510032125 | 42 | 292 | 0.0 | 2.0 | 0.00 | 0.00 | 0.00 | 59 | 1008.8 |
| 20260510031620 | 43 | 324 | 0.0 | 2.0 | 0.00 | 0.00 | 0.00 | 57 | 1008.8 |
| 20260510031117 | 44 | 308 | 0.0 | 2.0 | 0.00 | 0.00 | 0.00 | 55 | 1008.6 |
| 20260510030611 | 44 | 7 | 0.0 | 2.0 | 0.00 | 0.00 | 0.00 | 54 | 1008.7 |
| 20260510030109 | 45 | 321 | 0.0 | 2.0 | 0.00 | 0.00 | 0.00 | 52 | 1008.3 |
| 20260510025606 | 46 | 275 | 1.0 | 2.0 | 0.00 | 0.00 | 0.00 | 50 | 1008.3 |
| 20260510025103 | 46 | 312 | 0.0 | 2.0 | 0.00 | 0.00 | 0.00 | 50 | 1008.3 |
| 20260510024600 | 46 | 322 | 0.0 | 2.0 | 0.00 | 0.00 | 0.00 | 51 | 1008.1 |
| 20260510024056 | 47 | 293 | 1.0 | 2.0 | 0.00 | 0.00 | 0.00 | 49 | 1008.0 |
| 20260510023547 | 47 | 288 | 0.0 | 3.0 | 0.00 | 0.00 | 0.00 | 48 | 1007.9 |
| 20260510023044 | 47 | 289 | 2.0 | 2.0 | 0.00 | 0.00 | 0.00 | 47 | 1008.1 |
| 20260510022543 | 48 | 290 | 1.0 | 3.0 | 0.00 | 0.00 | 0.00 | 47 | 1008.0 |
| 20260510022037 | 48 | 325 | 0.0 | 2.0 | 0.00 | 0.00 | 0.00 | 48 | 1007.8 |
| 20260510021529 | 48 | 314 | 1.0 | 2.0 | 0.00 | 0.00 | 0.00 | 48 | 1007.8 |
| 20260510021027 | 49 | 327 | 0.0 | 2.0 | 0.00 | 0.00 | 0.00 | 46 | 1007.7 |
| 20260510020521 | 49 | 334 | 2.0 | 3.0 | 0.00 | 0.00 | 0.00 | 45 | 1007.5 |
| 20260510020017 | 49 | 342 | 0.0 | 2.0 | 0.00 | 0.00 | 0.00 | 44 | 1007.6 |
| 20260510015512 | 50 | 337 | 0.0 | 2.0 | 0.00 | 0.00 | 0.00 | 43 | 1007.3 |
| 20260510015008 | 50 | 306 | 2.0 | 3.0 | 0.00 | 0.00 | 0.00 | 42 | 1007.3 |
| 20260510014506 | 50 | 354 | 0.0 | 3.0 | 0.00 | 0.00 | 0.00 | 42 | 1007.2 |
| 20260510014003 | 51 | 264 | 1.0 | 4.0 | 0.00 | 0.00 | 0.00 | 41 | 1007.2 |
| 20260510013456 | 51 | 355 | 2.0 | 4.0 | 0.00 | 0.00 | 0.00 | 41 | 1007.1 |
| 20260510012952 | 52 | 8 | 2.0 | 5.0 | 0.00 | 0.00 | 0.00 | 40 | 1006.8 |
| 20260510012447 | 52 | 12 | 2.0 | 4.0 | 0.00 | 0.00 | 0.00 | 39 | 1006.7 |
| 20260510011943 | 53 | 313 | 1.0 | 8.0 | 0.00 | 0.00 | 0.00 | 38 | 1006.6 |
| 20260510011437 | 53 | 1 | 3.0 | 7.0 | 0.00 | 0.00 | 0.00 | 38 | 1006.5 |
| 20260510010934 | 54 | 4 | 3.0 | 6.0 | 0.00 | 0.00 | 0.00 | 37 | 1006.4 |
| 20260510010431 | 54 | 23 | 4.0 | 7.0 | 0.00 | 0.00 | 0.00 | 37 | 1006.3 |
| 20260510005928 | 55 | 344 | 1.0 | 5.0 | 0.00 | 0.00 | 0.00 | 36 | 1006.4 |
| 20260510005423 | 55 | 7 | 5.0 | 10.0 | 0.00 | 0.00 | 0.00 | 35 | 1006.5 |
| 20260510004921 | 55 | 16 | 6.0 | 13.0 | 0.00 | 0.00 | 0.00 | 34 | 1006.2 |
| 20260510004419 | 56 | 19 | 7.0 | 10.0 | 0.00 | 0.00 | 0.00 | 34 | 1006.1 |
| 20260510003916 | 56 | 30 | 6.0 | 9.0 | 0.00 | 0.00 | 0.00 | 34 | 1006.0 |
| 20260510003413 | 56 | 30 | 3.0 | 14.0 | 0.00 | 0.00 | 0.00 | 34 | 1005.8 |
| 20260510002912 | 56 | 354 | 7.0 | 14.0 | 0.00 | 0.00 | 0.00 | 33 | 1006.0 |
| 20260510002409 | 57 | 20 | 5.0 | 14.0 | 0.00 | 0.00 | 0.00 | 32 | 1006.1 |
| 20260510001906 | 57 | 359 | 4.0 | 14.0 | 0.00 | 0.00 | 0.00 | 32 | 1005.8 |
| 20260510001404 | 57 | 353 | 13.0 | 14.0 | 0.00 | 0.00 | 0.00 | 31 | 1005.5 |
| 20260510000900 | 57 | 36 | 7.0 | 13.0 | 0.00 | 0.00 | 0.00 | 33 | 1005.9 |
| 20260510000357 | 57 | 15 | 11.0 | 16.0 | 0.00 | 0.00 | 0.00 | 32 | 1005.6 |
| 20260509235853 | 57 | 7 | 3.0 | 15.0 | 0.00 | 0.00 | 0.00 | 31 | 1005.6 |
| 20260509235350 | 58 | 29 | 7.0 | 12.0 | 0.00 | 0.00 | 0.00 | 31 | 1005.5 |
| 20260509234846 | 58 | 37 | 5.0 | 15.0 | 0.00 | 0.00 | 0.00 | 31 | 1005.4 |
| 20260509234343 | 58 | 344 | 5.0 | 17.0 | 0.00 | 0.00 | 0.00 | 30 | 1005.4 |
| 20260509233842 | 58 | 358 | 3.0 | 13.0 | 0.00 | 0.00 | 0.00 | 30 | 1005.1 |
| 20260509233340 | 59 | 29 | 7.0 | 16.0 | 0.00 | 0.00 | 0.00 | 31 | 1005.2 |
| 20260509232835 | 59 | 334 | 6.0 | 13.0 | 0.00 | 0.00 | 0.00 | 31 | 1005.0 |
| 20260509232333 | 60 | 21 | 3.0 | 11.0 | 0.00 | 0.00 | 0.00 | 32 | 1004.9 |
| 20260509231829 | 60 | 3 | 7.0 | 13.0 | 0.00 | 0.00 | 0.00 | 32 | 1004.9 |
| 20260509231326 | 60 | 324 | 13.0 | 17.0 | 0.00 | 0.00 | 0.00 | 31 | 1004.8 |
| 20260509230824 | 60 | 314 | 8.0 | 19.0 | 0.00 | 0.00 | 0.00 | 30 | 1004.6 |
| 20260509230321 | 60 | 313 | 7.0 | 19.0 | 0.00 | 0.00 | 0.00 | 31 | 1004.8 |
| 20260509225815 | 60 | 311 | 7.0 | 15.0 | 0.00 | 0.00 | 0.00 | 30 | 1004.7 |
| 20260509225312 | 60 | 324 | 7.0 | 14.0 | 0.00 | 0.00 | 0.00 | 30 | 1004.7 |
| 20260509224809 | 60 | 14 | 7.0 | 24.0 | 0.00 | 0.00 | 0.00 | 30 | 1004.5 |
| 20260509224305 | 60 | 274 | 5.0 | 20.0 | 0.00 | 0.00 | 0.00 | 30 | 1004.5 |
| 20260509223801 | 60 | 308 | 15.0 | 15.0 | 0.00 | 0.00 | 0.00 | 30 | 1004.4 |
| 20260509223259 | 59 | 23 | 8.0 | 17.0 | 0.00 | 0.00 | 0.00 | 29 | 1004.4 |
| 20260509222755 | 60 | 23 | 4.0 | 13.0 | 0.00 | 0.00 | 0.00 | 30 | 1004.4 |
| 20260509222251 | 60 | 0 | 6.0 | 18.0 | 0.00 | 0.00 | 0.00 | 30 | 1004.4 |
| 20260509221747 | 61 | 341 | 6.0 | 16.0 | 0.00 | 0.00 | 0.00 | 30 | 1004.1 |
| 20260509221244 | 60 | 236 | 3.0 | 15.0 | 0.00 | 0.00 | 0.00 | 31 | 1004.0 |
| 20260509220739 | 60 | 14 | 14.0 | 18.0 | 0.00 | 0.00 | 0.00 | 32 | 1004.2 |
| 20260509220236 | 61 | 37 | 4.0 | 15.0 | 0.00 | 0.00 | 0.00 | 33 | 1004.1 |
| 20260509215731 | 60 | 12 | 6.0 | 15.0 | 0.00 | 0.00 | 0.00 | 31 | 1003.9 |
| 20260509215228 | 61 | 325 | 15.0 | 23.0 | 0.00 | 0.00 | 0.00 | 31 | 1003.9 |
| 20260509214725 | 60 | 12 | 5.0 | 14.0 | 0.00 | 0.00 | 0.00 | 32 | 1004.0 |
| 20260509214222 | 61 | 320 | 10.0 | 22.0 | 0.00 | 0.00 | 0.00 | 31 | 1003.9 |
| 20260509213719 | 60 | 2 | 6.0 | 31.0 | 0.00 | 0.00 | 0.00 | 32 | 1003.9 |
| 20260509213214 | 60 | 20 | 19.0 | 21.0 | 0.00 | 0.00 | 0.00 | 31 | 1003.9 |
| 20260509212712 | 60 | 317 | 5.0 | 16.0 | 0.00 | 0.00 | 0.00 | 31 | 1003.9 |
| 20260509212209 | 60 | 19 | 4.0 | 26.0 | 0.00 | 0.00 | 0.00 | 31 | 1004.0 |
| 20260509211705 | 60 | 351 | 4.0 | 14.0 | 0.00 | 0.00 | 0.00 | 31 | 1003.6 |
| 20260509211202 | 62 | 277 | 6.0 | 21.0 | 0.00 | 0.00 | 0.00 | 31 | 1003.7 |
| 20260509210658 | 60 | 304 | 7.0 | 28.0 | 0.00 | 0.00 | 0.00 | 32 | 1003.7 |
| 20260509210156 | 61 | 324 | 7.0 | 13.0 | 0.00 | 0.00 | 0.00 | 32 | 1003.6 |
| 20260509205651 | 61 | 327 | 9.0 | 16.0 | 0.00 | 0.00 | 0.00 | 32 | 1003.6 |
| 20260509205150 | 62 | 300 | 4.0 | 16.0 | 0.00 | 0.00 | 0.00 | 30 | 1003.5 |
| 20260509204646 | 61 | 336 | 6.0 | 15.0 | 0.00 | 0.00 | 0.00 | 35 | 1003.6 |
| 20260509204142 | 60 | 13 | 14.0 | 16.0 | 0.00 | 0.00 | 0.00 | 35 | 1003.6 |
| 20260509203638 | 60 | 0 | 12.0 | 17.0 | 0.00 | 0.00 | 0.00 | 34 | 1003.5 |
| 20260509203132 | 62 | 16 | 9.0 | 13.0 | 0.00 | 0.00 | 0.00 | 34 | 1003.4 |
| 20260509202631 | 60 | 17 | 5.0 | 14.0 | 0.00 | 0.00 | 0.00 | 34 | 1003.6 |
| 20260509202127 | 62 | 26 | 15.0 | 15.0 | 0.00 | 0.00 | 0.00 | 33 | 1003.4 |
| 20260509201622 | 60 | 13 | 9.0 | 17.0 | 0.00 | 0.00 | 0.00 | 34 | 1003.3 |
| 20260509201120 | 59 | 5 | 6.0 | 19.0 | 0.00 | 0.00 | 0.00 | 35 | 1003.2 |
| 20260509200615 | 60 | 13 | 7.0 | 17.0 | 0.00 | 0.00 | 0.00 | 33 | 1003.1 |
| 20260509200111 | 60 | 323 | 7.0 | 18.0 | 0.00 | 0.00 | 0.00 | 34 | 1003.2 |
| 20260509195607 | 61 | 341 | 7.0 | 20.0 | 0.00 | 0.00 | 0.00 | 35 | 1003.2 |
| 20260509195101 | 61 | 325 | 7.0 | 21.0 | 0.00 | 0.00 | 0.00 | 33 | 1003.0 |
| 20260509194601 | 60 | 10 | 5.0 | 17.0 | 0.00 | 0.00 | 0.00 | 35 | 1003.0 |
| 20260509194059 | 61 | 322 | 9.0 | 20.0 | 0.00 | 0.00 | 0.00 | 36 | 1003.1 |
| 20260509193555 | 60 | 1 | 6.0 | 22.0 | 0.00 | 0.00 | 0.00 | 33 | 1003.1 |
| 20260509193051 | 61 | 301 | 22.0 | 28.0 | 0.00 | 0.00 | 0.00 | 33 | 1002.7 |
| 20260509192548 | 60 | 4 | 15.0 | 26.0 | 0.00 | 0.00 | 0.00 | 36 | 1003.0 |
| 20260509192042 | 60 | 357 | 7.0 | 25.0 | 0.00 | 0.00 | 0.00 | 36 | 1002.7 |
| 20260509191537 | 61 | 323 | 5.0 | 13.0 | 0.00 | 0.00 | 0.00 | 36 | 1002.8 |
| 20260509191033 | 60 | 4 | 3.0 | 13.0 | 0.00 | 0.00 | 0.00 | 35 | 1002.6 |
| 20260509190530 | 60 | 320 | 12.0 | 17.0 | 0.00 | 0.00 | 0.00 | 34 | 1003.0 |
| 20260509190028 | 60 | 34 | 4.0 | 15.0 | 0.00 | 0.00 | 0.00 | 38 | 1002.5 |
| 20260509185525 | 60 | 8 | 9.0 | 26.0 | 0.00 | 0.00 | 0.00 | 36 | 1002.6 |
| 20260509185021 | 60 | 7 | 7.0 | 23.0 | 0.00 | 0.00 | 0.00 | 36 | 1002.7 |
| 20260509184520 | 61 | 317 | 5.0 | 21.0 | 0.00 | 0.00 | 0.00 | 37 | 1002.5 |
| 20260509184016 | 60 | 329 | 4.0 | 18.0 | 0.00 | 0.00 | 0.00 | 36 | 1002.6 |
| 20260509183511 | 61 | 17 | 4.0 | 14.0 | 0.00 | 0.00 | 0.00 | 38 | 1002.5 |
| 20260509183007 | 60 | 288 | 5.0 | 19.0 | 0.00 | 0.00 | 0.00 | 38 | 1002.1 |
| 20260509182504 | 59 | 329 | 7.0 | 17.0 | 0.00 | 0.00 | 0.00 | 39 | 1002.7 |
| 20260509182001 | 60 | 27 | 13.0 | 19.0 | 0.00 | 0.00 | 0.00 | 39 | 1002.1 |
| 20260509181459 | 60 | 324 | 8.0 | 20.0 | 0.00 | 0.00 | 0.00 | 38 | 1002.1 |
| 20260509180956 | 60 | 328 | 7.0 | 20.0 | 0.00 | 0.00 | 0.00 | 39 | 1002.2 |
| 20260509180451 | 60 | 162 | 3.0 | 17.0 | 0.00 | 0.00 | 0.00 | 41 | 1002.4 |
| 20260509175949 | 58 | 0 | 15.0 | 17.0 | 0.00 | 0.00 | 0.00 | 43 | 1002.0 |
| 20260509175445 | 59 | 349 | 7.0 | 17.0 | 0.00 | 0.00 | 0.00 | 43 | 1002.1 |
| 20260509174941 | 59 | 307 | 4.0 | 18.0 | 0.00 | 0.00 | 0.00 | 41 | 1002.0 |
| 20260509174437 | 59 | 2 | 6.0 | 20.0 | 0.00 | 0.00 | 0.00 | 43 | 1001.8 |
| 20260509173933 | 59 | 2 | 7.0 | 24.0 | 0.00 | 0.00 | 0.00 | 44 | 1002.0 |
| 20260509173427 | 59 | 31 | 10.0 | 17.0 | 0.00 | 0.00 | 0.00 | 44 | 1002.0 |
| 20260509172924 | 59 | 265 | 4.0 | 15.0 | 0.00 | 0.00 | 0.00 | 43 | 1002.1 |
| 20260509172421 | 58 | 23 | 8.0 | 29.0 | 0.00 | 0.00 | 0.00 | 44 | 1001.7 |
| 20260509171917 | 58 | 20 | 13.0 | 17.0 | 0.00 | 0.00 | 0.00 | 46 | 1002.0 |
| 20260509171413 | 57 | 38 | 5.0 | 15.0 | 0.00 | 0.00 | 0.00 | 49 | 1002.0 |
| 20260509170909 | 57 | 356 | 7.0 | 20.0 | 0.00 | 0.00 | 0.00 | 48 | 1001.9 |
| 20260509170404 | 57 | 359 | 10.0 | 18.0 | 0.00 | 0.00 | 0.00 | 49 | 1002.1 |
| 20260509165900 | 59 | 16 | 9.0 | 22.0 | 0.00 | 0.00 | 0.00 | 46 | 1001.9 |
| 20260509165354 | 57 | 314 | 4.0 | 19.0 | 0.00 | 0.00 | 0.00 | 49 | 1002.1 |
| 20260509164851 | 58 | 316 | 4.0 | 26.0 | 0.00 | 0.00 | 0.00 | 46 | 1002.1 |
| 20260509164346 | 57 | 299 | 8.0 | 24.0 | 0.00 | 0.00 | 0.00 | 54 | 1001.9 |
| 20260509163837 | 57 | 15 | 7.0 | 20.0 | 0.00 | 0.00 | 0.00 | 54 | 1001.7 |
| 20260509163334 | 58 | 15 | 13.0 | 15.0 | 0.00 | 0.00 | 0.00 | 53 | 1001.9 |
| 20260509162834 | 57 | 5 | 4.0 | 13.0 | 0.00 | 0.00 | 0.00 | 54 | 1001.7 |
| 20260509162332 | 58 | 26 | 4.0 | 16.0 | 0.00 | 0.00 | 0.00 | 55 | 1001.8 |
| 20260509161828 | 57 | 340 | 6.0 | 18.0 | 0.00 | 0.00 | 0.00 | 57 | 1001.6 |
| 20260509161319 | 55 | 21 | 11.0 | 19.0 | 0.00 | 0.00 | 0.00 | 60 | 1001.6 |
| 20260509160815 | 56 | 93 | 3.0 | 22.0 | 0.00 | 0.00 | 0.00 | 56 | 1001.8 |
| 20260509160311 | 57 | 0 | 5.0 | 15.0 | 0.00 | 0.00 | 0.00 | 57 | 1001.4 |
| 20260509155806 | 55 | 6 | 5.0 | 23.0 | 0.00 | 0.00 | 0.00 | 59 | 1001.4 |
| 20260509155306 | 55 | 343 | 7.0 | 17.0 | 0.00 | 0.00 | 0.00 | 60 | 1001.5 |
| 20260509154759 | 56 | 29 | 7.0 | 14.0 | 0.00 | 0.00 | 0.00 | 59 | 1001.4 |
| 20260509154256 | 56 | 19 | 9.0 | 22.0 | 0.00 | 0.00 | 0.00 | 58 | 1001.1 |
| 20260509153753 | 56 | 9 | 21.0 | 21.0 | 0.00 | 0.00 | 0.00 | 58 | 1001.4 |
| 20260509153249 | 56 | 310 | 7.0 | 17.0 | 0.00 | 0.00 | 0.00 | 60 | 1001.4 |
| 20260509152745 | 55 | 349 | 7.0 | 12.0 | 0.00 | 0.00 | 0.00 | 63 | 1001.2 |
| 20260509152242 | 54 | 3 | 5.0 | 20.0 | 0.00 | 0.00 | 0.00 | 62 | 1000.9 |
| 20260509151739 | 54 | 15 | 11.0 | 17.0 | 0.00 | 0.00 | 0.00 | 63 | 1000.9 |
| 20260509151235 | 55 | 350 | 9.0 | 20.0 | 0.00 | 0.00 | 0.00 | 64 | 1000.9 |
| 20260509150734 | 54 | 5 | 6.0 | 23.0 | 0.00 | 0.00 | 0.00 | 66 | 1000.6 |
| 20260509150231 | 55 | 318 | 10.0 | 20.0 | 0.00 | 0.00 | 0.00 | 62 | 1000.5 |
| 20260509145728 | 55 | 323 | 5.0 | 20.0 | 0.00 | 0.00 | 0.00 | 65 | 1000.5 |
| 20260509145223 | 54 | 24 | 10.0 | 13.0 | 0.00 | 0.00 | 0.00 | 67 | 1000.3 |
| 20260509144720 | 54 | 144 | 5.0 | 20.0 | 0.00 | 0.00 | 0.00 | 68 | 1000.3 |
| 20260509144217 | 54 | 352 | 5.0 | 18.0 | 0.00 | 0.00 | 0.00 | 67 | 1000.3 |
| 20260509143714 | 54 | 317 | 7.0 | 18.0 | 0.00 | 0.00 | 0.00 | 68 | 1000.2 |
| 20260509143211 | 54 | 26 | 8.0 | 18.0 | 0.00 | 0.00 | 0.00 | 67 | 1000.2 |
| 20260509142707 | 55 | 1 | 5.0 | 16.0 | 0.00 | 0.00 | 0.00 | 64 | 1000.0 |
| 20260509142204 | 54 | 350 | 7.0 | 15.0 | 0.00 | 0.00 | 0.00 | 64 | 1000.1 |
| 20260509141659 | 54 | 330 | 4.0 | 16.0 | 0.00 | 0.00 | 0.00 | 67 | 999.8 |
| 20260509141156 | 54 | 4 | 8.0 | 17.0 | 0.00 | 0.00 | 0.00 | 67 | 1000.0 |
| 20260509140653 | 55 | 227 | 4.0 | 16.0 | 0.00 | 0.00 | 0.00 | 68 | 999.8 |
| 20260509140151 | 54 | 341 | 9.0 | 15.0 | 0.00 | 0.00 | 0.00 | 68 | 999.7 |
| 20260509135648 | 54 | 339 | 6.0 | 17.0 | 0.00 | 0.00 | 0.00 | 67 | 999.5 |
| 20260509135146 | 54 | 345 | 4.0 | 18.0 | 0.00 | 0.00 | 0.00 | 67 | 999.6 |
| 20260509134642 | 54 | 279 | 6.0 | 16.0 | 0.00 | 0.00 | 0.00 | 65 | 999.4 |